"Pseudo-MPEC" for Hz4c1NH

Created 2019 Nov 13 9:07:06 UT using Find_Orb

Click here for an explanation of pseudo-MPECs

 
 Astrometry: 
     Hz4c1NH !C2019 10 25D.=291(t;:(D'mmV?2fIe@3e[k.i=sV0*8+FR3D4ZF[6?wI,!hfAW84
     Hz4c1NH !C2019 10 25QG_X6V+Fg6_L6794%sZa0S83_9!%4#V7$pIoAstrometryU;GEs5W84
     Hz4c1NH !C2019 10 25l2Iq`]2p6K)P*USbfD@\G5Qd!Q]6CJ_o0v'redacted;Z3,cc%GXW84
     Hz4c1NH !C2019 10 25c*Vclick*@#s]ZJG[^LybenLbP,u6I8;KVMh;)L5aFrups0L2\LNW84
     Hz4c1NH !C2019 10 25Ht!d$herea_;1QV6a^$AQl(wWG8ht$$Rt-jSo)nZZ$pBbNx*%jfVW84
     Hz4c1NH !C2019 10 25/x$!fR%DR1K?;YhforEMHYexplanation,r!nFTRDs\-q:.]lg[DW84

Station data:
(W84) Cerro Tololo-DECam  (S30.169597 W70.806420)  Chile. 4.0-m f/2.87
   reflector + CCD.

Orbital elements:  Hz4c1NH
   Perihelion 2019 Dec 13.122986 +/- 317 TT =  2:57:06 (JD 2458830.622986)
Epoch 2019 Oct 25.0 TT = JDT 2458781.5   Earth MOID: 0.0217   AutoNEOCP
M 320.87240032 +/- 90               (J2000 ecliptic)
n   0.79652324 +/- 0.499            Peri.  353.42190 +/- 57
a   1.15257823 +/- 0.481            Node    85.75923 +/- 100
e   0.1661822 +/- 0.221             Incl.    7.16786 +/- 37
P   1.24/451.96d           H 24.9   G  0.15   U 12.3  SR
q 0.96104018 +/- 1.19    Q 1.34411628 +/- 30.7
From 6 observations 2019 Oct. 25 (46.3 min); mean residual 0".09
Residuals in arcseconds: 
191025 W84  .11-  .07-    191025 W84  .02+  .17+    191025 W84  .02+  .05-    
191025 W84  .17+  .01+    191025 W84  .00   .01+    191025 W84  .09-  .07-    

Ephemerides (geocentric):
Date (UTC) HH   RA              Dec         delta   r     elong  mag " sig PA
---- -- -- --  -------------   -----------  ------ ------ -----  --- ---- ---
2019 11 13 09  22 36 05.793   -61 49 45.50  .10558 .98376  83.8 23.2 4139  32
2019 11 13 10  22 36 03.332   -61 49 13.99  .10549 .98370  83.7 23.2 4150  32
2019 11 13 11  22 36 00.864   -61 48 42.43  .10540 .98364  83.7 23.2 4161  32
2019 11 13 12  22 35 58.390   -61 48 10.82  .10531 .98358  83.7 23.2 4173  32
2019 11 13 13  22 35 55.910   -61 47 39.17  .10522 .98352  83.6 23.2 4184  32
2019 11 13 14  22 35 53.425   -61 47 07.47  .10513 .98346  83.6 23.2 4196  33
2019 11 13 15  22 35 50.933   -61 46 35.72  .10504 .98340  83.6 23.2 4207  33
2019 11 13 16  22 35 48.436   -61 46 03.93  .10495 .98334  83.6 23.2 4219  33
2019 11 13 17  22 35 45.932   -61 45 32.09  .10486 .98328  83.5 23.2 4231  33
2019 11 13 18  22 35 43.422   -61 45 00.20  .10477 .98321  83.5 23.2 4242  33
2019 11 13 19  22 35 40.906   -61 44 28.26  .10468 .98315  83.5 23.2 4254  33
2019 11 13 20  22 35 38.384   -61 43 56.27  .10459 .98309  83.4 23.2 4265  33
2019 11 13 21  22 35 35.856   -61 43 24.24  .10450 .98303  83.4 23.2 4277  33
2019 11 13 22  22 35 33.321   -61 42 52.16  .10441 .98297  83.4 23.2 4289  33
2019 11 13 23  22 35 30.780   -61 42 20.03  .10432 .98291  83.4 23.2 4301  33
2019 11 14 00  22 35 28.233   -61 41 47.85  .10423 .98285  83.3 23.2 4312  33
2019 11 14 01  22 35 25.679   -61 41 15.62  .10414 .98279  83.3 23.2 4324  33
2019 11 14 02  22 35 23.119   -61 40 43.35  .10405 .98273  83.3 23.2 4336  33
2019 11 14 03  22 35 20.553   -61 40 11.02  .10396 .98267  83.2 23.2 4348  33
2019 11 14 04  22 35 17.980   -61 39 38.65  .10387 .98261  83.2 23.2 4360  33
2019 11 14 05  22 35 15.401   -61 39 06.22  .10377 .98255  83.2 23.2 4372  33
2019 11 14 06  22 35 12.815   -61 38 33.75  .10368 .98249  83.2 23.2 4384  33
2019 11 14 07  22 35 10.222   -61 38 01.22  .10359 .98243  83.1 23.2 4395  33
2019 11 14 08  22 35 07.623   -61 37 28.65  .10350 .98237  83.1 23.2 4407  33
2019 11 14 09  22 35 05.017   -61 36 56.03  .10341 .98231  83.1 23.2 4420  33
2019 11 14 10  22 35 02.405   -61 36 23.35  .10332 .98225  83.0 23.2 4432  33
2019 11 14 11  22 34 59.785   -61 35 50.63  .10323 .98219  83.0 23.2 4444  33
2019 11 14 12  22 34 57.159   -61 35 17.86  .10314 .98213  83.0 23.2 4456  33
2019 11 14 13  22 34 54.527   -61 34 45.03  .10304 .98207  83.0 23.2 4468  33
2019 11 14 14  22 34 51.887   -61 34 12.15  .10295 .98201  82.9 23.2 4480  33
2019 11 14 15  22 34 49.241   -61 33 39.23  .10286 .98196  82.9 23.2 4492  33
2019 11 14 16  22 34 46.587   -61 33 06.25  .10277 .98190  82.9 23.2 4505  33
2019 11 14 17  22 34 43.927   -61 32 33.22  .10268 .98184  82.8 23.2 4517  33
2019 11 14 18  22 34 41.260   -61 32 00.14  .10259 .98178  82.8 23.2 4529  33
2019 11 14 19  22 34 38.585   -61 31 27.01  .10249 .98172  82.8 23.2 4542  33
2019 11 14 20  22 34 35.904   -61 30 53.82  .10240 .98166  82.8 23.2 4554  34
2019 11 14 21  22 34 33.216   -61 30 20.59  .10231 .98160  82.7 23.2 4566  34
2019 11 14 22  22 34 30.520   -61 29 47.30  .10222 .98154  82.7 23.2 4579  34
2019 11 14 23  22 34 27.818   -61 29 13.96  .10213 .98148  82.7 23.2 4591  34
2019 11 15 00  22 34 25.108   -61 28 40.56  .10204 .98143  82.6 23.2 4604  34
2019 11 15 01  22 34 22.391   -61 28 07.12  .10194 .98137  82.6 23.2 4616  34
2019 11 15 02  22 34 19.666   -61 27 33.62  .10185 .98131  82.6 23.2 4629  34
2019 11 15 03  22 34 16.935   -61 27 00.06  .10176 .98125  82.6 23.2 4642  34
2019 11 15 04  22 34 14.196   -61 26 26.46  .10167 .98119  82.5 23.2 4654  34
2019 11 15 05  22 34 11.449   -61 25 52.80  .10157 .98113  82.5 23.2 4667  34
2019 11 15 06  22 34 08.695   -61 25 19.09  .10148 .98108  82.5 23.2 4680  34
2019 11 15 07  22 34 05.934   -61 24 45.32  .10139 .98102  82.4 23.2 4693  34
2019 11 15 08  22 34 03.166   -61 24 11.50  .10130 .98096  82.4 23.2 4705  34